DW0749 Weather Reports


time (UTC)temp
C
wind
direction
speed
KPH
gust
KPH
rain 1hr
cm
rain 24hr
cm
rain mn
cm
humidity
%
barometer
mb
20210920050604 13 251 0.0 0.0 0.00 0.05 0.05 78 1018.5
20210920050113 13 250 0.0 0.0 0.00 0.05 0.05 78 1018.4
20210920045558 13 251 0.0 0.0 0.00 0.05 0.05 78 1018.4
20210920045058 13 250 0.0 0.0 0.00 0.05 0.05 78 1018.3
20210920044548 13 250 0.0 0.0 0.00 0.08 0.05 78 1018.4
20210920044049 13 251 0.0 0.0 0.00 0.08 0.05 78 1018.4
20210920043549 13 250 0.0 0.0 0.00 0.10 0.05 78 1018.4
20210920043049 13 250 0.0 0.0 0.00 0.13 0.05 79 1018.3
20210920042548 13 250 0.0 0.0 0.00 0.15 0.05 78 1018.2
20210920042049 13 251 0.0 0.0 0.00 0.15 0.05 77 1018.2
20210920041544 13 251 0.0 0.0 0.00 0.18 0.05 77 1018.2
20210920041044 13 251 0.0 0.0 0.00 0.20 0.05 77 1018.2
20210920040544 13 250 0.0 0.0 0.00 0.20 0.05 77 1018.1
20210920040057 13 250 0.0 0.0 0.00 0.23 0.05 76 1018.0
20210920035545 13 250 0.0 0.0 0.00 0.23 0.05 76 1017.8
20210920035044 13 251 0.0 0.0 0.00 0.23 0.05 76 1017.7
20210920034538 13 250 0.0 0.0 0.00 0.23 0.05 76 1017.7
20210920034037 13 250 0.0 0.0 0.00 0.23 0.05 76 1017.6
20210920033534 13 251 0.0 0.0 0.00 0.23 0.05 76 1017.5
20210920033032 13 251 0.0 0.0 0.00 0.23 0.05 76 1017.4
20210920032533 13 251 0.0 0.0 0.00 0.23 0.05 76 1017.3
20210920032024 13 251 0.0 0.0 0.00 0.23 0.05 76 1017.0
20210920031525 13 250 0.0 0.0 0.00 0.23 0.05 76 1016.9
20210920031024 13 251 0.0 0.0 0.00 0.23 0.05 76 1016.9
20210920030520 13 250 0.0 0.0 0.00 0.23 0.05 76 1016.7
20210920030021 13 250 0.0 0.0 0.00 0.23 0.05 75 1016.6
20210920025515 14 250 0.0 0.0 0.00 0.23 0.05 75 1016.4
20210920025013 14 250 0.0 0.0 0.00 0.23 0.05 75 1016.2
20210920024511 14 250 0.0 0.0 0.00 0.23 0.05 76 1016.0
20210920024008 14 250 0.0 0.0 0.00 0.23 0.05 74 1016.0
20210920023509 14 251 0.0 0.0 0.00 0.23 0.05 73 1016.0
20210920023006 15 250 0.0 0.0 0.00 0.23 0.05 73 1015.9
20210920022456 15 250 0.0 0.0 0.00 0.23 0.05 73 1015.8
20210920021954 15 251 0.0 0.0 0.00 0.23 0.05 72 1015.8
20210920021452 15 250 0.0 0.0 0.00 0.23 0.05 72 1015.7
20210920021003 15 251 0.0 0.0 0.00 0.23 0.05 72 1015.6
20210920020447 15 251 0.0 0.0 0.00 0.23 0.05 71 1015.5
20210920015948 15 251 0.0 0.0 0.00 0.23 0.05 71 1015.5
20210920015447 15 250 0.0 0.0 0.00 0.23 0.05 71 1015.4
20210920014947 15 250 0.0 0.0 0.00 0.23 0.05 71 1015.3
20210920014446 15 250 0.0 0.0 0.00 0.23 0.05 70 1015.2
20210920013946 15 269 0.0 0.0 0.00 0.23 0.05 71 1015.2
20210920013441 15 269 0.0 0.0 0.00 0.23 0.05 70 1015.2
20210920012939 15 269 0.0 0.0 0.00 0.23 0.05 70 1015.1
20210920012437 16 269 0.0 0.0 0.00 0.23 0.05 70 1015.1
20210920011935 16 308 0.0 0.0 0.00 0.23 0.05 70 1015.0
20210920011434 16 308 0.0 0.0 0.00 0.36 0.05 70 1015.0
20210920010929 16 327 0.0 0.0 0.00 0.38 0.05 72 1015.0
20210920010428 16 327 0.0 3.2 0.00 0.43 0.05 73 1015.0
20210920005924 16 327 0.0 3.2 0.00 0.43 0.05 72 1014.9
20210920005423 16 246 0.0 0.0 0.00 0.48 0.05 71 1014.7
20210920004923 16 246 0.0 0.0 0.00 0.48 0.05 70 1014.6
20210920004417 16 246 0.0 3.2 0.00 0.48 0.05 70 1014.6
20210920003914 16 248 0.0 3.2 0.00 0.51 0.05 68 1014.6
20210920003413 16 270 0.0 3.2 0.00 0.51 0.05 67 1014.5
20210920002910 16 271 0.0 6.4 0.00 0.51 0.05 67 1014.5
20210920002411 16 277 0.0 6.4 0.00 0.51 0.05 65 1014.5
20210920001905 16 70 0.0 0.0 0.00 0.51 0.05 66 1014.3
20210920001402 16 250 0.0 0.0 0.00 0.51 0.05 66 1014.2
20210920000903 17 250 0.0 6.4 0.00 0.51 0.05 65 1014.3
20210920000403 17 238 0.0 6.4 0.00 0.51 0.05 64 1014.3
20210919235901 17 259 0.0 4.8 0.00 0.51 0.05 63 1014.1
20210919235401 17 241 0.0 4.8 0.00 0.51 0.05 64 1014.1
20210919234855 17 254 0.0 4.8 0.00 0.51 0.05 64 1013.9
20210919234352 17 182 0.0 8.0 0.00 0.51 0.05 64 1013.9
20210919233857 17 219 1.6 8.0 0.00 0.51 0.05 64 1013.9
20210919233348 17 257 0.0 4.8 0.00 0.51 0.05 63 1013.8
20210919232849 17 246 0.0 3.2 0.00 0.51 0.05 65 1013.7
20210919232343 17 275 0.0 4.8 0.00 0.51 0.05 63 1013.7
20210919231843 17 276 0.0 4.8 0.00 0.51 0.05 63 1013.7
20210919231343 17 280 0.0 0.0 0.00 0.51 0.05 65 1013.6
20210919230840 17 254 1.6 6.4 0.00 0.51 0.05 65 1013.5
20210919230341 17 282 1.6 6.4 0.00 0.51 0.05 64 1013.5
20210919225831 17 242 0.0 6.4 0.00 0.51 0.05 67 1013.4
20210919225328 17 111 0.0 8.0 0.00 0.51 0.05 67 1013.5
20210919224828 17 268 0.0 8.0 0.00 0.51 0.05 68 1013.5
20210919224329 16 126 0.0 4.8 0.00 0.51 0.05 72 1013.5
20210919223829 16 292 0.0 0.0 0.00 0.51 0.05 73 1013.4
20210919223323 16 292 0.0 0.0 0.00 0.51 0.05 72 1013.4
20210919222820 17 291 0.0 0.0 0.00 0.51 0.05 71 1013.4
20210919222320 17 291 0.0 0.0 0.00 0.51 0.05 73 1013.4
20210919221821 17 291 0.0 3.2 0.00 0.51 0.05 73 1013.4
20210919221318 17 306 0.0 3.2 0.00 0.51 0.05 73 1013.2
20210919220818 16 258 0.0 3.2 0.00 0.51 0.05 74 1013.2
20210919220312 16 325 0.0 6.4 0.00 0.51 0.05 75 1013.3
20210919215816 16 269 0.0 6.4 0.00 0.51 0.05 75 1013.3
20210919215313 16 270 0.0 0.0 0.00 0.51 0.05 77 1013.2
20210919214310 16 236 0.0 0.0 0.00 0.51 0.05 77 1013.3
20210919213805 16 236 0.0 0.0 0.00 0.51 0.05 75 1013.2
20210919213303 16 236 0.0 0.0 0.00 0.51 0.05 75 1013.1
20210919212803 16 277 0.0 0.0 0.00 0.51 0.05 76 1013.1
20210919212305 16 110 0.0 3.2 0.00 0.51 0.05 76 1013.2
20210919211804 16 110 0.0 3.2 0.00 0.51 0.05 76 1013.1
20210919211300 16 88 0.0 0.0 0.00 0.51 0.05 77 1012.9
20210919210753 16 297 0.0 4.8 0.00 0.51 0.05 78 1012.8
20210919210254 16 294 0.0 4.8 0.00 0.51 0.05 77 1012.8
20210919205753 16 283 0.0 3.2 0.00 0.51 0.05 77 1012.8
20210919205251 16 283 0.0 3.2 0.00 0.51 0.05 77 1012.7
20210919205030 16 107 0.0 3.2 0.00 0.51 0.05 78 1012.8
20210919204248 16 83 0.0 3.2 0.00 0.51 0.05 80 1012.7
20210919203746 15 102 0.0 0.0 0.00 0.51 0.05 83 1012.8
20210919203247 15 102 0.0 0.0 0.00 0.51 0.05 86 1012.6
20210919202747 15 284 0.0 1.6 0.00 0.51 0.05 87 1012.6
20210919202247 14 284 0.0 1.6 0.00 0.51 0.05 87 1012.5
20210919201747 14 94 1.6 11.3 0.00 0.51 0.05 87 1012.5
20210919201247 14 94 0.0 11.3 0.00 0.51 0.05 87 1012.6
20210919200737 14 86 0.0 1.6 0.00 0.51 0.05 87 1012.5
20210919200237 14 95 0.0 0.0 0.00 0.51 0.05 88 1012.5
20210919195734 14 95 0.0 0.0 0.00 0.51 0.05 90 1012.4
20210919195233 14 95 0.0 8.0 0.00 0.51 0.05 89 1012.3
20210919194735 14 95 1.6 8.0 0.00 0.51 0.05 89 1012.3
20210919194225 14 86 0.0 9.7 0.00 0.51 0.05 88 1012.3
20210919193720 14 88 0.0 9.7 0.00 0.51 0.05 88 1012.2
20210919193221 13 124 1.6 12.9 0.00 0.51 0.05 89 1012.1
20210919192720 13 83 1.6 12.9 0.03 0.51 0.05 89 1012.1
20210919192219 13 77 1.6 9.7 0.03 0.51 0.05 88 1012.1
20210919191713 14 180 0.0 0.0 0.03 0.51 0.05 89 1012.1
20210919191211 14 180 0.0 0.0 0.03 0.51 0.05 89 1011.9
20210919190709 13 153 0.0 0.0 0.05 0.51 0.05 92 1011.9
20210919190207 13 152 0.0 4.8 0.05 0.51 0.05 94 1011.8
20210919185707 13 82 0.0 4.8 0.05 0.51 0.05 95 1011.7
20210919185200 13 0 0.0 0.0 0.05 0.51 0.05 95 1011.8
20210919184701 13 313 0.0 0.0 0.05 0.51 0.05 95 1011.7
20210919184156 13 313 0.0 0.0 0.05 0.51 0.05 95 1011.5
20210919183655 13 313 0.0 0.0 0.05 0.51 0.05 95 1011.5
20210919183155 12 313 0.0 4.8 0.05 0.51 0.05 95 1011.4
20210919182649 12 313 0.0 4.8 0.03 0.51 0.05 95 1011.3
20210919181645 12 36 0.0 0.0 0.03 0.51 0.05 95 1011.2
20210919181143 12 36 0.0 0.0 0.03 0.51 0.05 95 1011.2
20210919180642 12 36 0.0 0.0 0.00 0.48 0.03 95 1011.1
20210919180137 12 36 0.0 0.0 0.00 0.48 0.03 95 1011.2
20210919175637 12 36 0.0 0.0 0.00 0.48 0.03 95 1011.1
20210919175133 12 36 0.0 0.0 0.00 0.48 0.03 95 1011.0
20210919174631 12 36 0.0 0.0 0.00 0.48 0.03 95 1011.1
20210919174131 12 36 0.0 0.0 0.00 0.48 0.03 95 1011.0
20210919173621 12 36 0.0 0.0 0.00 0.48 0.03 95 1010.9
20210919173120 11 36 0.0 0.0 0.00 0.48 0.03 95 1010.7
20210919172619 11 36 0.0 0.0 0.00 0.48 0.03 95 1010.7
20210919172118 11 36 0.0 0.0 0.00 0.48 0.03 95 1010.7
20210919171617 11 36 0.0 0.0 0.00 0.48 0.03 95 1010.6
20210919171109 11 36 0.0 0.0 0.00 0.48 0.03 95 1010.6
20210919170605 11 36 0.0 0.0 0.00 0.48 0.03 95 1010.5
20210919170112 11 36 0.0 0.0 0.00 0.48 0.03 95 1010.4
20210919165601 11 36 0.0 0.0 0.00 0.48 0.03 95 1010.4
20210919165059 11 36 0.0 0.0 0.00 0.48 0.03 95 1010.3
20210919164601 11 36 0.0 0.0 0.00 0.48 0.03 95 1010.2
20210919164100 11 36 0.0 0.0 0.00 0.48 0.03 95 1010.2
20210919163558 11 36 0.0 0.0 0.00 0.48 0.03 95 1010.0
20210919163050 11 36 0.0 0.0 0.00 0.48 0.03 95 1010.0
20210919162541 11 36 0.0 0.0 0.00 0.48 0.03 95 1009.8
20210919162035 11 36 0.0 0.0 0.00 0.48 0.03 95 1009.8
20210919161535 11 36 0.0 0.0 0.00 0.48 0.03 95 1009.7
20210919161035 11 36 0.0 0.0 0.00 0.48 0.03 95 1009.7
20210919160538 11 36 0.0 0.0 0.00 0.48 0.03 95 1009.8
20210919160048 11 36 0.0 0.0 0.00 0.48 0.03 95 1009.7
20210919155533 11 36 0.0 0.0 0.00 0.48 0.03 95 1009.7
20210919155031 11 36 0.0 0.0 0.00 0.48 0.03 95 1009.6
20210919154531 11 36 0.0 0.0 0.00 0.48 0.03 95 1009.6
20210919154031 11 36 0.0 0.0 0.00 0.48 0.03 95 1009.5
20210919153531 10 36 0.0 0.0 0.00 0.48 0.03 95 1009.4
20210919153031 10 36 0.0 0.0 0.00 0.48 0.03 95 1009.2
20210919152529 10 36 0.0 0.0 0.00 0.48 0.03 95 1009.0
20210919152029 10 36 0.0 0.0 0.00 0.48 0.03 95 1008.9
20210919151527 10 36 0.0 0.0 0.00 0.48 0.03 95 1009.0
20210919151027 10 36 0.0 0.0 0.00 0.48 0.03 95 1008.9
20210919150527 10 36 0.0 0.0 0.00 0.48 0.03 95 1008.9
20210919150040 10 36 0.0 0.0 0.00 0.48 0.03 95 1009.0
20210919145525 10 36 0.0 0.0 0.00 0.48 0.03 95 1008.9
20210919145024 10 36 0.0 0.0 0.00 0.48 0.03 95 1008.8
20210919144524 10 36 0.0 0.0 0.00 0.48 0.03 95 1008.7
20210919144023 10 36 0.0 0.0 0.00 0.48 0.03 95 1008.8
20210919143523 10 36 0.0 0.0 0.00 0.48 0.03 95 1008.7
20210919143024 10 36 0.0 0.0 0.00 0.48 0.03 95 1008.6
20210919142521 10 36 0.0 0.0 0.00 0.48 0.03 95 1008.5
20210919142013 10 36 0.0 0.0 0.00 0.48 0.03 95 1008.5
20210919141511 10 36 0.0 0.0 0.00 0.48 0.03 95 1008.3
20210919141012 10 36 0.0 0.0 0.00 0.48 0.03 95 1008.2
20210919140515 10 36 0.0 0.0 0.00 0.48 0.03 95 1008.1
20210919140016 10 36 0.0 0.0 0.00 0.48 0.03 95 1008.0
20210919135511 10 36 0.0 0.0 0.00 0.48 0.03 95 1007.9
20210919135009 10 36 0.0 0.0 0.00 0.48 0.03 95 1007.8
20210919134507 10 36 0.0 0.0 0.00 0.48 0.03 95 1007.8
20210919134007 10 36 0.0 0.0 0.00 0.48 0.03 95 1007.9
20210919133508 10 36 0.0 0.0 0.00 0.48 0.03 95 1007.8
20210919133007 10 36 0.0 0.0 0.00 0.48 0.03 94 1007.7
20210919132508 10 36 0.0 0.0 0.00 0.48 0.03 94 1007.7
20210919132007 10 36 0.0 0.0 0.00 0.48 0.03 94 1007.7
20210919131459 10 36 0.0 0.0 0.00 0.48 0.03 95 1007.5
20210919130951 10 36 0.0 0.0 0.00 0.48 0.03 95 1007.4
20210919130445 10 36 0.0 0.0 0.00 0.48 0.03 94 1007.4
20210919125945 10 36 0.0 0.0 0.00 0.48 0.03 94 1007.2
20210919125445 10 36 0.0 0.0 0.00 0.48 0.03 94 1007.2
20210919124946 10 36 0.0 0.0 0.00 0.48 0.03 94 1007.0
20210919124445 10 36 0.0 0.0 0.00 0.48 0.03 94 1007.0
20210919123943 10 36 0.0 0.0 0.00 0.48 0.03 94 1006.9
20210919123441 10 36 0.0 0.0 0.00 0.48 0.03 94 1007.0
20210919122944 10 36 0.0 0.0 0.00 0.48 0.03 94 1007.0
20210919122431 10 36 0.0 0.0 0.00 0.48 0.03 94 1006.9
20210919121931 10 36 0.0 0.0 0.00 0.48 0.03 94 1006.8
20210919121429 10 36 0.0 0.0 0.00 0.48 0.03 94 1006.7
20210919120930 10 36 0.0 0.0 0.00 0.48 0.03 94 1006.7
20210919120430 10 36 0.0 0.0 0.00 0.48 0.03 94 1006.6
20210919115927 10 36 0.0 0.0 0.00 0.48 0.03 94 1006.5
20210919115427 10 36 0.0 0.0 0.00 0.48 0.03 94 1006.5
20210919114917 10 36 0.0 0.0 0.00 0.48 0.03 94 1006.4
20210919114415 10 36 0.0 0.0 0.00 0.48 0.03 94 1006.4
20210919113919 10 36 0.0 0.0 0.00 0.48 0.03 94 1006.3
20210919113415 10 36 0.0 0.0 0.00 0.48 0.03 94 1006.2
20210919112916 10 36 0.0 0.0 0.00 0.48 0.03 94 1006.2
20210919112413 10 36 0.0 0.0 0.00 0.48 0.03 94 1006.1
20210919111913 10 36 0.0 0.0 0.00 0.48 0.03 94 1006.1
20210919111409 10 36 0.0 0.0 0.00 0.48 0.03 94 1006.1
20210919110909 10 36 0.0 0.0 0.00 0.48 0.03 94 1006.1
20210919110406 10 36 0.0 0.0 0.00 0.48 0.03 94 1006.0
20210919105909 10 36 0.0 0.0 0.00 0.48 0.03 94 1006.1
20210919105407 10 36 0.0 0.0 0.00 0.48 0.03 94 1006.0
20210919104905 10 36 0.0 0.0 0.00 0.48 0.03 94 1005.9
20210919104405 10 36 0.0 0.0 0.00 0.48 0.03 94 1005.9
20210919103855 10 36 0.0 0.0 0.00 0.48 0.03 94 1005.9
20210919103353 10 36 0.0 0.0 0.00 0.48 0.03 94 1005.8
20210919102852 10 36 0.0 0.0 0.00 0.48 0.03 94 1005.8
20210919102349 10 36 0.0 0.0 0.00 0.48 0.03 94 1005.7
20210919101850 10 36 0.0 0.0 0.00 0.48 0.03 94 1005.7
20210919101347 10 36 0.0 0.0 0.00 0.48 0.03 94 1005.8
20210919100845 10 36 0.0 0.0 0.00 0.48 0.03 94 1005.7
20210919100345 10 36 0.0 0.0 0.00 0.48 0.03 94 1005.6
20210919095846 10 36 0.0 0.0 0.00 0.48 0.03 94 1005.6
20210919095345 10 36 0.0 0.0 0.00 0.48 0.03 94 1005.5
20210919094845 10 36 0.0 0.0 0.00 0.48 0.03 94 1005.5
20210919094344 10 36 0.0 0.0 0.03 0.48 0.03 94 1005.4
20210919093846 10 37 0.0 0.0 0.03 0.48 0.03 94 1005.4
20210919093339 10 37 0.0 0.0 0.03 0.48 0.03 94 1005.3
20210919092835 10 37 0.0 0.0 0.03 0.48 0.03 94 1005.3
20210919092333 10 37 0.0 0.0 0.03 0.51 0.03 94 1005.3
20210919091831 10 37 0.0 0.0 0.03 0.51 0.03 94 1005.2
20210919091330 10 37 0.0 0.0 0.03 0.56 0.03 94 1005.2
20210919090825 10 37 0.0 0.0 0.03 0.61 0.03 94 1005.1
20210919090321 11 37 0.0 0.0 0.03 0.61 0.03 94 1005.1
20210919085820 11 37 0.0 0.0 0.03 0.64 0.03 94 1005.0
20210919085318 11 37 0.0 0.0 0.03 0.64 0.03 94 1004.9
20210919084821 11 37 0.0 0.0 0.00 0.61 0.03 94 1004.8
20210919084311 11 37 0.0 0.0 0.00 0.64 0.00 94 1004.8
20210919083810 11 37 0.0 0.0 0.00 0.64 0.00 94 1004.8
20210919083307 11 37 0.0 0.0 0.00 0.69 0.00 94 1004.9
20210919082805 11 37 0.0 0.0 0.00 0.69 0.00 94 1004.9
20210919082305 11 37 0.0 0.0 0.00 0.71 0.00 94 1004.9
20210919081800 11 37 0.0 0.0 0.00 0.71 0.00 94 1004.9
20210919081257 11 37 0.0 0.0 0.00 0.71 0.00 94 1004.9
20210919080755 11 37 0.0 0.0 0.00 0.71 0.00 94 1004.8
20210919080256 11 37 0.0 0.0 0.00 0.74 0.00 94 1004.8
20210919075751 11 37 0.0 0.0 0.00 0.74 0.74 94 1004.8
20210919075243 11 37 0.0 0.0 0.00 0.76 0.74 94 1004.8
20210919074735 11 37 0.0 0.0 0.00 0.76 0.74 94 1004.8
20210919074227 11 37 0.0 0.0 0.00 0.76 0.74 94 1004.8
20210919073723 11 36 0.0 0.0 0.00 0.79 0.74 94 1004.7
20210919073223 11 36 0.0 0.0 0.00 0.79 0.74 94 1004.6
20210919072723 11 36 0.0 0.0 0.00 0.84 0.74 94 1004.6
20210919072221 11 36 0.0 0.0 0.00 0.84 0.74 94 1004.6
20210919071719 11 36 0.0 0.0 0.00 0.84 0.74 94 1004.6
20210919071217 11 37 0.0 0.0 0.00 0.84 0.74 94 1004.7
20210919070716 11 32 0.0 0.0 0.00 0.84 0.74 94 1004.7
20210919070213 11 32 0.0 0.0 0.00 0.84 0.74 94 1004.7
20210919065714 11 32 0.0 0.0 0.00 0.86 0.74 94 1004.7
20210919065203 11 32 0.0 0.0 0.00 0.86 0.74 94 1004.5
20210919064701 11 32 0.0 0.0 0.00 0.86 0.74 94 1004.5
20210919064159 11 32 0.0 0.0 0.00 0.86 0.74 94 1004.4
20210919063659 11 32 0.0 0.0 0.00 0.86 0.74 94 1004.4
20210919063157 11 32 0.0 0.0 0.00 0.86 0.74 94 1004.3
20210919062658 11 32 0.0 0.0 0.00 0.86 0.74 94 1004.2
20210919062147 11 32 0.0 0.0 0.00 0.86 0.74 94 1004.3
20210919061645 11 32 0.0 0.0 0.00 0.89 0.74 94 1004.2
20210919061143 11 32 0.0 0.0 0.00 0.89 0.74 93 1004.0
20210919060643 11 32 0.0 0.0 0.00 0.89 0.74 93 1004.0
20210919060143 11 32 0.0 0.0 0.00 0.89 0.74 93 1004.0
20210919055641 11 32 0.0 0.0 0.00 0.89 0.74 93 1003.9
20210919055131 11 34 0.0 0.0 0.00 0.89 0.74 93 1003.8
20210919054631 11 336 0.0 0.0 0.00 0.89 0.74 93 1003.8
20210919054132 11 336 0.0 0.0 0.03 0.89 0.74 93 1003.7
20210919053630 11 336 0.0 0.0 0.05 0.89 0.74 93 1003.7
20210919053127 11 336 0.0 0.0 0.05 0.89 0.74 93 1003.6
20210919052628 11 336 0.0 0.0 0.08 0.91 0.74 93 1003.7
20210919052119 11 336 0.0 0.0 0.10 0.91 0.74 93 1003.6
20210919051620 11 336 0.0 0.0 0.13 0.94 0.74 93 1003.6
20210919051117 11 336 0.0 0.0 0.15 0.94 0.74 93 1003.6